Weather History for Oakland, CA

Change the Weather History Date:

Thursday, March 28, 2013

  Actual Average Record
Temperature  
Mean Temperature 62 °F 55 °F  
Max Temperature 70 °F 64 °F 79 °F (1968)
Min Temperature 53 °F 47 °F 38 °F (1950)
Degree Days  
Heating Degree Days 3 10  
Month to date heating degree days 246 304  
Since 1 July heating degree days 2152 2326  
Cooling Degree Days 0 0  
Month to date cooling degree days 0 0  
Year to date cooling degree days 0 0  
Growing Degree Days 12 (Base 50)    
Moisture  
Dew Point 57 °F    
Average Humidity 80    
Maximum Humidity 100    
Minimum Humidity 59    
Precipitation  
Precipitation T in 0.08 in 0.32 in (2006)
Month to date precipitation 0.32 2.84  
Year to date precipitation 1.13 10.78  
Since 1 July precipitation 12.12 18.37  
Sea Level Pressure  
Sea Level Pressure 30.06 in    
Wind  
Wind Speed 6 mph (West)    
Max Wind Speed 17 mph    
Max Gust Speed 20 mph    
Visibility 9 miles    
Events Rain    
T = Trace of Precipitation, MM = Missing Value Source: NWS Daily Summary

Daily Weather History Graph

Daily Weather History Graph

Search for Another Location

Airport:

Trip Planner

Search our weather history database for the weather conditions in past years. The results will help you decide how hot, cold, wet, or windy it might be!

Date:

Astronomy

Mar. 28, 2013 Rise Set
Actual Time 6:59 AM PDT 7:28 PM PDT
Civil Twilight 6:33 AM PDT 7:54 PM PDT
Nautical Twilight 6:02 AM PDT 8:25 PM PDT
Astronomical Twilight 5:31 AM PDT 8:57 PM PDT
Moon 9:23 PM PDT (3/28) 7:33 AM PDT (3/28)
Length of Visible Light 13h 21m
Length of Day
12h 28m
Full, 98% of the Moon is Illuminated
Mar 28
Full
Apr 2
Last Quarter
Apr 10
New
Apr 18
First Quarter
Apr 25
Full

Hourly Weather History & Observations

Time (PDT) Temp. Dew Point Humidity Pressure Visibility Wind Dir Wind Speed Gust Speed Precip Events Conditions
12:53 AM 57.0 °F 55.9 °F 96% 30.04 in 10.0 mi NW 4.6 mph - N/A   Mostly Cloudy
1:16 AM 57.2 °F 57.2 °F 100% 30.04 in 10.0 mi Calm Calm - N/A   Overcast
1:53 AM 57.9 °F 55.9 °F 93% 30.04 in 10.0 mi Calm Calm - N/A   Overcast
2:24 AM 57.2 °F 57.2 °F 100% 30.04 in 10.0 mi WNW 4.6 mph - N/A   Overcast
2:33 AM 57.2 °F 57.2 °F 100% 30.04 in 10.0 mi WNW 4.6 mph - N/A   Overcast
2:50 AM 57.2 °F 57.2 °F 100% 30.04 in 3.0 mi WSW 6.9 mph - 0.00 in Rain Light Rain
2:53 AM 57.9 °F 57.9 °F 100% 30.04 in 3.0 mi West 5.8 mph - 0.00 in Rain Light Rain
3:10 AM 57.2 °F 57.2 °F 100% 30.04 in 4.0 mi WSW 4.6 mph - 0.00 in   Overcast
3:53 AM 57.9 °F 57.9 °F 100% 30.03 in 10.0 mi Calm Calm - 0.00 in   Overcast
4:53 AM 57.9 °F 57.9 °F 100% 30.03 in 10.0 mi South 8.1 mph - 0.00 in   Overcast
5:04 AM 57.2 °F 57.2 °F 100% 30.03 in 10.0 mi South 6.9 mph - N/A   Overcast
5:53 AM 57.9 °F 57.9 °F 100% 30.04 in 10.0 mi Calm Calm - N/A   Overcast
6:01 AM 57.2 °F 57.2 °F 100% 30.04 in 10.0 mi Calm Calm - N/A   Overcast
6:45 AM 57.2 °F 57.2 °F 100% 30.04 in 10.0 mi Calm Calm - N/A   Overcast
6:53 AM 57.9 °F 57.9 °F 100% 30.04 in 10.0 mi Calm Calm - N/A   Overcast
6:56 AM 57.2 °F 57.2 °F 100% 30.04 in 10.0 mi Calm Calm - N/A   Overcast
7:51 AM 59.0 °F 59.0 °F 100% 30.06 in 10.0 mi WSW 4.6 mph - N/A   Overcast
7:53 AM 59.0 °F 59.0 °F 100% 30.06 in 10.0 mi WSW 4.6 mph - N/A   Overcast
8:53 AM 60.1 °F 57.9 °F 93% 30.08 in 10.0 mi WSW 6.9 mph - N/A   Overcast
9:53 AM 61.0 °F 57.0 °F 87% 30.09 in 10.0 mi West 5.8 mph - N/A   Overcast
10:09 AM 60.8 °F 57.2 °F 88% 30.09 in 10.0 mi WSW 3.5 mph - N/A   Mostly Cloudy
10:53 AM 62.1 °F 57.9 °F 86% 30.09 in 10.0 mi WSW 4.6 mph - N/A   Mostly Cloudy
11:53 AM 63.0 °F 57.0 °F 81% 30.09 in 10.0 mi WSW 8.1 mph - N/A   Mostly Cloudy
12:53 PM 66.0 °F 55.0 °F 68% 30.09 in 10.0 mi West 5.8 mph - N/A   Mostly Cloudy
1:53 PM 68.0 °F 54.0 °F 61% 30.07 in 10.0 mi West 4.6 mph - N/A   Mostly Cloudy
2:53 PM 66.9 °F 55.0 °F 66% 30.06 in 10.0 mi WNW 9.2 mph - N/A   Mostly Cloudy
3:53 PM 66.9 °F 57.9 °F 73% 30.05 in 10.0 mi NW 12.7 mph - N/A   Mostly Cloudy
4:53 PM 66.9 °F 59.0 °F 76% 30.05 in 10.0 mi WNW 13.8 mph - N/A   Mostly Cloudy
5:53 PM 64.9 °F 57.9 °F 78% 30.05 in 10.0 mi West 15.0 mph - N/A   Mostly Cloudy
6:53 PM 63.0 °F 57.0 °F 81% 30.06 in 10.0 mi WNW 13.8 mph - N/A   Mostly Cloudy
7:53 PM 60.1 °F 55.0 °F 83% 30.08 in 10.0 mi WNW 9.2 mph - N/A   Scattered Clouds
8:53 PM 59.0 °F 55.0 °F 87% 30.09 in 10.0 mi NW 8.1 mph - N/A   Mostly Cloudy
9:53 PM 57.9 °F 55.0 °F 90% 30.11 in 10.0 mi NW 6.9 mph - N/A   Scattered Clouds
10:53 PM 57.0 °F 55.9 °F 96% 30.11 in 10.0 mi NW 4.6 mph - N/A   Scattered Clouds
11:53 PM 55.9 °F 55.0 °F 97% 30.11 in 10.0 mi WNW 5.8 mph - N/A   Partly Cloudy